TimePDT,TemperatureF,Dew PointF,Humidity,Sea Level PressureIn,VisibilityMPH,Wind Direction,Wind SpeedMPH,Gust SpeedMPH,PrecipitationIn,Events,Conditions,WindDirDegrees,DateUTC
12:56 AM,57.9,25.0,28,30.08,10.0,West,5.8,-,N/A,,Clear,270,2013-06-28 07:56:00
3:56 AM,54.0,30.0,40,30.09,10.0,Calm,Calm,-,N/A,,Clear,0,2013-06-28 10:56:00
5:56 AM,52.0,32.0,47,30.11,10.0,SE,4.6,-,N/A,,Clear,130,2013-06-28 12:56:00
6:56 AM,62.1,30.9,31,30.09,10.0,Calm,Calm,-,N/A,,Clear,0,2013-06-28 13:56:00
7:56 AM,73.9,33.1,22,30.07,10.0,Calm,Calm,-,N/A,,Clear,0,2013-06-28 14:56:00
8:56 AM,82.0,37.9,21,30.07,10.0,NNW,5.8,-,N/A,,Clear,340,2013-06-28 15:56:00
9:56 AM,88.0,39.0,18,30.04,10.0,ENE,8.1,-,N/A,,Clear,60,2013-06-28 16:56:00
10:56 AM,93.9,36.0,13,30.02,10.0,Variable,5.8,-,N/A,,Clear,0,2013-06-28 17:56:00
11:56 AM,98.1,34.0,11,30.00,10.0,NNE,11.5,-,N/A,,Clear,30,2013-06-28 18:56:00
12:56 PM,100.9,30.0,8,29.97,10.0,North,12.7,19.6,N/A,,Clear,360,2013-06-28 19:56:00
1:56 PM,102.9,28.9,7,29.94,10.0,North,13.8,20.7,N/A,,Clear,360,2013-06-28 20:56:00
2:56 PM,102.9,28.9,7,29.92,10.0,Calm,Calm,-,N/A,,Clear,0,2013-06-28 21:56:00
3:56 PM,104.0,30.0,8,29.89,10.0,SSE,11.5,-,N/A,,Clear,160,2013-06-28 22:56:00
4:56 PM,105.1,30.0,7,29.87,10.0,WNW,13.8,18.4,N/A,,Clear,300,2013-06-28 23:56:00
5:56 PM,104.0,28.0,7,29.86,10.0,Variable,3.5,-,N/A,,Clear,0,2013-06-29 00:56:00
6:56 PM,102.9,28.0,7,29.83,10.0,NW,5.8,-,N/A,,Clear,320,2013-06-29 01:56:00
7:42 PM,95.0,37.4,13,30.02,10.0,ESE,11.5,-,N/A,,Clear,120,2013-06-29 02:42:00
7:56 PM,93.9,36.0,13,29.84,10.0,SE,12.7,-,N/A,,Clear,140,2013-06-29 02:56:00
8:56 PM,86.0,35.1,16,29.84,10.0,South,6.9,-,N/A,,Clear,170,2013-06-29 03:56:00
9:56 PM,82.9,35.1,18,29.86,10.0,ENE,6.9,-,N/A,,Clear,60,2013-06-29 04:56:00
10:56 PM,87.1,36.0,16,29.87,10.0,SSE,10.4,23.0,N/A,,Clear,150,2013-06-29 05:56:00
11:56 PM,86.0,36.0,17,29.87,10.0,SE,3.5,-,0.01,,Clear,140,2013-06-29 06:56:00